Location: Raleigh
(35.7720°N, 78.6390°W)
Time: 16:49:01
(UTC-04:00)

JAS-2 - Visible Passes

Search period start: 25 September 2016 00:00
Search period end: 05 October 2016 00:00
Orbit: 801 x 1321 km, 98.6° (Epoch: 24 September)

Date Brightness Start Highest point End Pass type
(mag) Time Alt. Az. Time Alt. Az. Time Alt. Az.
25 Sep 12.2 01:49:46 10° N 01:51:20 17° N 01:51:20 17° N visible
26 Sep 12.4 00:54:48 10° NNE 00:55:31 13° NNE 00:55:31 13° NNE visible
26 Sep 12.2 02:40:45 10° N 02:42:00 14° NNW 02:42:00 14° NNW visible
27 Sep 12.3 01:44:53 10° N 01:46:11 16° N 01:46:11 16° N visible
28 Sep 12.5 00:50:00 10° NNE 00:50:22 12° NNE 00:50:22 12° NNE visible
28 Sep 12.3 02:35:48 10° N 02:36:51 14° NNW 02:36:51 14° NNW visible
29 Sep 12.4 01:40:01 10° N 01:41:02 15° N 01:41:02 15° N visible
30 Sep 12.6 00:45:12 10° NNE 00:45:13 10° NNE 00:45:13 10° NNE visible
30 Sep 12.3 02:30:52 10° N 02:31:41 13° NNW 02:31:41 13° NNW visible
01 Oct 12.4 01:35:09 10° N 01:35:52 13° N 01:35:52 13° N visible
02 Oct 12.4 02:25:57 10° N 02:26:32 12° N 02:26:32 12° N visible
03 Oct 12.5 01:30:19 10° N 01:30:43 12° N 01:30:43 12° N visible
04 Oct 12.5 02:21:02 10° N 02:21:22 11° N 02:21:22 11° N visible
